Location: Pasadena, ca
(34.1243°N, 118.1037°W)
Time: 01:02:05
(UTC-07:00)

Vanguard 2 Rocket - Visible Passes

Search period start: 23 October 2017 00:00
Search period end: 02 November 2017 00:00
Orbit: 555 x 3327 km, 32.9° (Epoch: 22 October)

Date Brightness Start Highest point End Pass type
(mag) Time Alt. Az. Time Alt. Az. Time Alt. Az.
23 Oct 10.5 18:46:40 10° W 18:56:29 29° SSW 19:10:25 10° SSE visible
24 Oct 11.1 20:06:22 10° WSW 20:12:09 13° SW 20:18:45 10° SSW visible
25 Oct 10.9 19:03:25 10° WSW 19:11:12 18° SSW 19:21:12 10° S visible
28 Oct 11.0 18:20:09 10° WSW 18:25:20 14° SSW 18:31:39 10° S visible
